Flag for France Weather past 2 weeks in Gustavia, Saint Barthélemy, France

Now
79 °F

Passing clouds.


Feels Like: 81 °F
Forecast: 78 / 82 °F
Wind: 13 mph from East

Location: Juliana Airport - Saint Maarten

Current Time: Mar 28, 2015 at 12:36:34 AM

Latest Report: Mar 27, 2015 at 11:00 PM


Visibility: N/A

Pressure: 30.12 "Hg

Humidity: 65%

Dew point: 66 °F

Location of GustaviaLocation

Historic Weather in Gustavia — Graph

°F

Gustavia temperature yesterday

Maximum temperature yesterday: 82 °F (at 12:00 PM)
Minimum temperature yesterday: 77 °F (at 2:00 AM)
Average temperature yesterday: 80 °F

Past Weeks' High & Low Weather Summary

 TemperatureHumidityPressure
High84 °F (Mar 13, 2:00 PM)83% (Mar 16, 2:00 AM)30.12 "Hg (Mar 16, 2:00 AM)
Low73 °F (Mar 16, 2:00 AM)44% (Mar 15, 6:00 AM)29.92 "Hg (Mar 15, 8:00 PM)
Average79 °F67%30.03 "Hg
* Reported Mar 12 11:00 PM — Mar 27 11:00 PM, Gustavia, Weather by CustomWeather, © 2015

Note: Actual official high and low records may vary slightly from our data, if they occured in-between our weather recording intervals... More about our weather records

Advertising

Gustavia weather history for previous 24 hours

 ConditionsComfort  
Time TempWeatherWind HumidityBarometerVisibility
11:00 PM
Fri, Mar 27
79 °FPassing clouds.13 mph65%30.12 "HgN/A
10:00 PM79 °FPassing clouds.13 mph65%30.12 "HgN/A
9:00 PM79 °FPassing clouds.13 mph70%30.09 "HgN/A
8:00 PM79 °FPassing clouds.13 mph74%30.09 "HgN/A
7:00 PM79 °FPassing clouds.13 mph70%30.07 "HgN/A
6:00 PM79 °FScattered clouds.14 mph70%30.07 "HgN/A
5:00 PM81 °FPassing clouds.14 mph66%30.04 "HgN/A
4:00 PM82 °FPassing clouds.13 mph62%30.04 "HgN/A
3:00 PM82 °FPassing clouds.13 mph58%30.04 "HgN/A
2:00 PM82 °FScattered clouds.15 mph62%30.07 "HgN/A
1:00 PM82 °FScattered clouds.15 mph62%30.07 "HgN/A
12:00 PM82 °FScattered clouds.14 mph62%30.09 "HgN/A
11:00 AM81 °FScattered clouds.18 mph66%30.12 "HgN/A
10:00 AM81 °FPartly sunny.13 mph66%30.12 "HgN/A
9:00 AM81 °FScattered clouds.15 mph66%30.09 "HgN/A
8:00 AM79 °FPassing clouds.13 mph70%30.09 "HgN/A
7:00 AM77 °FScattered clouds.15 mph74%30.07 "HgN/A
6:00 AM77 °FSprinkles. Passing clouds.13 mph79%30.07 "HgN/A
5:00 AM77 °FPassing clouds.15 mph79%30.04 "HgN/A
4:00 AM77 °FPassing clouds.12 mph79%30.04 "HgN/A
2:00 AM77 °FPassing clouds.14 mph74%30.04 "HgN/A
12:00 AM79 °FPassing clouds.13 mph65%30.07 "HgN/A
Weather by CustomWeather, © 2015

See weather overviewHow to use our weather pages